Hourly Weather Ruda-Koltivs'ka

Today, 2 August, Monday

Time Temperature Precipitation Wind Pressure Humidity
00:00 +21°C° 0 mm 5 mps 728 mmHg 78%
01:00 +21°C° 0 mm 5 mps 728 mmHg 78%
02:00 +20°C° 0 mm 4 mps 728 mmHg 81%
03:00 +20°C° 0 mm 4 mps 728 mmHg 82%
04:00 +20°C° 0 mm 5 mps 728 mmHg 82%
05:00 +19°C° 0 mm 5 mps 728 mmHg 83%
06:00 +20°C° 0 mm 5 mps 729 mmHg 83%
07:00 +20°C° 0 mm 6 mps 730 mmHg 83%
08:00 +20°C° 0 mm 6 mps 730 mmHg 84%
09:00 +19°C° 0 mm 6 mps 731 mmHg 84%
10:00 +19°C° 0 mm 6 mps 731 mmHg 84%
11:00 +19°C° 0 mm 6 mps 732 mmHg 84%
12:00 +19°C° 0 mm 6 mps 732 mmHg 82%
13:00 +19°C° 0 mm 6 mps 733 mmHg 79%
14:00 +19°C° 0 mm 6 mps 733 mmHg 76%
15:00 +19°C° 0 mm 5 mps 733 mmHg 75%
16:00 +19°C° 0 mm 5 mps 733 mmHg 75%
17:00 +19°C° 0 mm 4 mps 733 mmHg 74%
18:00 +18°C° 0 mm 4 mps 733 mmHg 79%
19:00 +17°C° 0 mm 3 mps 734 mmHg 84%
20:00 +16°C° 0 mm 2 mps 734 mmHg 89%
21:00 +15°C° 0 mm 2 mps 734 mmHg 90%
22:00 +15°C° 0 mm 2 mps 734 mmHg 90%
23:00 +15°C° 0 mm 2 mps 734 mmHg 91%

Tomorrow, 3 August, Tuesday

Time Temperature Precipitation Wind Pressure Humidity
00:00 +14°C° 0 mm 2 mps 735 mmHg 91%
01:00 +14°C° 0 mm 2 mps 735 mmHg 92%
02:00 +14°C° 0 mm 2 mps 735 mmHg 92%
03:00 +14°C° 0 mm 2 mps 735 mmHg 92%
04:00 +13°C° 0 mm 2 mps 735 mmHg 92%
05:00 +13°C° 0 mm 2 mps 735 mmHg 92%
06:00 +15°C° 0 mm 2 mps 736 mmHg 87%
07:00 +17°C° 0 mm 2 mps 736 mmHg 81%
08:00 +18°C° 0 mm 2 mps 736 mmHg 75%
09:00 +19°C° 0.1 mm 2 mps 736 mmHg 70%
10:00 +21°C° 0.1 mm 2 mps 737 mmHg 65%
11:00 +23°C° 0.1 mm 2 mps 737 mmHg 61%
12:00 +22°C° 0.3 mm 3 mps 737 mmHg 59%
13:00 +24°C° 0.3 mm 3 mps 737 mmHg 57%
14:00 +24°C° 0.3 mm 3 mps 736 mmHg 55%
15:00 +24°C° 0 mm 3 mps 736 mmHg 54%
16:00 +24°C° 0 mm 2 mps 736 mmHg 54%
17:00 +24°C° 0 mm 2 mps 736 mmHg 53%
18:00 +23°C° 0 mm 2 mps 736 mmHg 58%
19:00 +21°C° 0 mm 1 mps 736 mmHg 64%
20:00 +19°C° 0 mm 1 mps 736 mmHg 69%
21:00 +19°C° 0.1 mm 1 mps 736 mmHg 72%
22:00 +17°C° 0.1 mm 2 mps 736 mmHg 75%
23:00 +16°C° 0.1 mm 2 mps 736 mmHg 77%

Day after tomorrow, 4 August, Wednesday

Time Temperature Precipitation Wind Pressure Humidity
00:00 +16°C° 0.2 mm 2 mps 736 mmHg 79%
01:00 +16°C° 0.2 mm 2 mps 736 mmHg 81%
02:00 +16°C° 0.2 mm 2 mps 736 mmHg 83%
03:00 +15°C° 0 mm 2 mps 736 mmHg 85%
04:00 +15°C° 0 mm 2 mps 736 mmHg 87%
05:00 +14°C° 0 mm 3 mps 736 mmHg 88%
06:00 +16°C° 0 mm 3 mps 736 mmHg 86%
07:00 +18°C° 0 mm 3 mps 736 mmHg 83%
08:00 +19°C° 0 mm 4 mps 736 mmHg 80%
09:00 +21°C° 0 mm 4 mps 736 mmHg 74%
10:00 +22°C° 0 mm 4 mps 736 mmHg 67%
11:00 +25°C° 0 mm 4 mps 736 mmHg 61%
12:00 +25°C° 0 mm 3 mps 736 mmHg 59%
13:00 +26°C° 0 mm 3 mps 736 mmHg 57%
14:00 +26°C° 0 mm 3 mps 735 mmHg 54%
15:00 +26°C° 0 mm 4 mps 735 mmHg 56%
16:00 +26°C° 0 mm 4 mps 735 mmHg 58%
17:00 +25°C° 0 mm 4 mps 735 mmHg 60%
18:00 +23°C° 0 mm 4 mps 734 mmHg 64%
19:00 +22°C° 0 mm 4 mps 734 mmHg 69%
20:00 +20°C° 0 mm 5 mps 734 mmHg 73%
21:00 +21°C° 0 mm 4 mps 734 mmHg 69%
22:00 +21°C° 0 mm 4 mps 734 mmHg 65%
23:00 +21°C° 0 mm 4 mps 734 mmHg 61%

5 August, Thursday

Time Temperature Precipitation Wind Pressure Humidity
00:00 +21°C° 0 mm 3 mps 733 mmHg 64%
01:00 +21°C° 0 mm 3 mps 733 mmHg 67%
02:00 +21°C° 0 mm 2 mps 733 mmHg 69%
03:00 +20°C° 0.1 mm 2 mps 733 mmHg 73%
04:00 +20°C° 0.1 mm 2 mps 732 mmHg 76%
05:00 +19°C° 0.1 mm 3 mps 732 mmHg 80%
06:00 +20°C° 0 mm 2 mps 732 mmHg 78%
07:00 +21°C° 0 mm 2 mps 732 mmHg 76%
08:00 +23°C° 0 mm 2 mps 732 mmHg 74%
09:00 +24°C° 0 mm 2 mps 732 mmHg 67%
10:00 +26°C° 0 mm 2 mps 732 mmHg 60%
11:00 +28°C° 0 mm 2 mps 732 mmHg 52%
12:00 +28°C° 0 mm 2 mps 732 mmHg 51%
13:00 +29°C° 0 mm 2 mps 732 mmHg 49%
14:00 +30°C° 0 mm 2 mps 732 mmHg 48%
15:00 +30°C° 0 mm 2 mps 731 mmHg 48%
16:00 +30°C° 0 mm 2 mps 731 mmHg 48%
17:00 +31°C° 0 mm 2 mps 730 mmHg 48%
18:00 +29°C° 0 mm 3 mps 730 mmHg 53%
19:00 +27°C° 0 mm 3 mps 729 mmHg 58%
20:00 +25°C° 0 mm 4 mps 728 mmHg 63%
21:00 +23°C° 0.6 mm 5 mps 728 mmHg 70%
22:00 +22°C° 0.6 mm 6 mps 728 mmHg 78%
23:00 +21°C° 0.6 mm 6 mps 729 mmHg 85%

6 August, Friday

Time Temperature Precipitation Wind Pressure Humidity
00:00 +20°C° 0.1 mm 6 mps 728 mmHg 85%
01:00 +20°C° 0.1 mm 5 mps 727 mmHg 85%
02:00 +19°C° 0.1 mm 4 mps 727 mmHg 86%
03:00 +19°C° 0 mm 4 mps 727 mmHg 87%
04:00 +18°C° 0 mm 3 mps 727 mmHg 89%
05:00 +17°C° 0 mm 3 mps 727 mmHg 90%
06:00 +19°C° 0 mm 4 mps 728 mmHg 86%
07:00 +20°C° 0 mm 5 mps 728 mmHg 82%
08:00 +21°C° 0 mm 6 mps 728 mmHg 77%
09:00 +22°C° 0 mm 6 mps 729 mmHg 72%
10:00 +22°C° 0 mm 6 mps 729 mmHg 68%
11:00 +23°C° 0 mm 6 mps 730 mmHg 63%
12:00 +23°C° 0 mm 6 mps 730 mmHg 63%
13:00 +23°C° 0 mm 6 mps 730 mmHg 62%
14:00 +23°C° 0 mm 5 mps 730 mmHg 62%
15:00 +22°C° 0 mm 5 mps 730 mmHg 64%
16:00 +22°C° 0 mm 5 mps 730 mmHg 66%
17:00 +21°C° 0 mm 4 mps 730 mmHg 67%
18:00 +20°C° 0 mm 4 mps 731 mmHg 73%
19:00 +19°C° 0 mm 3 mps 731 mmHg 80%
20:00 +17°C° 0 mm 2 mps 731 mmHg 86%
21:00 +17°C° 0 mm 2 mps 731 mmHg 88%
22:00 +16°C° 0 mm 2 mps 732 mmHg 90%
23:00 +16°C° 0 mm 1 mps 732 mmHg 92%

7 August, Saturday

Time Temperature Precipitation Wind Pressure Humidity
00:00 +15°C° 0 mm 2 mps 732 mmHg 92%
01:00 +15°C° 0 mm 2 mps 732 mmHg 92%
02:00 +15°C° 0 mm 2 mps 732 mmHg 93%
03:00 +14°C° 0 mm 2 mps 732 mmHg 93%
04:00 +14°C° 0 mm 2 mps 733 mmHg 93%
05:00 +14°C° 0 mm 1 mps 733 mmHg 93%
06:00 +15°C° 0 mm 2 mps 733 mmHg 87%
07:00 +17°C° 0 mm 2 mps 734 mmHg 81%
08:00 +19°C° 0 mm 2 mps 734 mmHg 75%
09:00 +20°C° 0 mm 2 mps 734 mmHg 70%
10:00 +23°C° 0 mm 2 mps 734 mmHg 64%
11:00 +24°C° 0 mm 2 mps 735 mmHg 58%
12:00 +25°C° 0 mm 2 mps 735 mmHg 55%
13:00 +26°C° 0 mm 3 mps 735 mmHg 52%
14:00 +26°C° 0 mm 3 mps 735 mmHg 48%
15:00 +26°C° 0 mm 2 mps 735 mmHg 48%
16:00 +27°C° 0 mm 2 mps 735 mmHg 48%
17:00 +27°C° 0 mm 1 mps 735 mmHg 48%
18:00 +25°C° 0 mm 1 mps 735 mmHg 53%
19:00 +23°C° 0 mm 1 mps 735 mmHg 59%
20:00 +19°C° 0 mm 0 mps 735 mmHg 65%
21:00 +21°C° 0 mm 1 mps 735 mmHg 67%
22:00 +20°C° 0 mm 1 mps 736 mmHg 68%
23:00 +19°C° 0 mm 1 mps 736 mmHg 70%
Show more

We Need Your Consent

Meteoprog and our Service Providers may store and access personal data such as cookies, device identifiers or other similar technologies on your device and process such data to personalise content and ads, as well as provide social media features and to analyse the traffic.

  • Store and/or access information on your device

    Cookies, device identifiers or other information can be stored or accessed on your device for the purposes indicated above.

  • Personalised ads and content, ad and content measurement, audience insights, and products development

    Ads and content can be personalised based on a profile. More data can be added to better personalise ads and content. Ad and content performance can be measured. Insights about the audience who saw the ads and content can be derived. Such data can be used to develop or improve user’s experience, systems and software.

By clicking ‘I Agree’ you will allow the use of indicated cookies, device identifiers, web beacons or other similar technologies. Your settings can be changed in the browser on your device.

For certain purposes, legitimate interests may be relied on, rather than consent. You can read more about this in our Privacy and Cookie Policy.